Location: Unspecified
(41.5000°N, 0.0000°E)
Time: 10:00:28
(UTC+00:00)

Vanguard 1 - Pass Details

Date: 23 June 2019
Orbit: 653 x 3830 km, 34.3° (Epoch: 15 July)

Event Time Altitude Azimuth Distance (km) Brightness Sun altitude
Exits shadow 03:45:07 - 250° (WSW) 6,987 13.8 -7.1°
Reaches altitude 10° 03:48:45 10° 248° (WSW) 6,082 13.5 -6.6°
Maximum altitude 04:05:19 59° 175° (S) 2,289 11.8 -4.1°
Drops below altitude 10° 04:14:14 10° 99° (E) 3,442 13.6 -2.8°
Sets 04:16:33 0° 95° (E) 4,135 14.2 -2.4°
